[[{"header":{"parameterUnit":"m.s-1","parameterCategory":1,"la1":30.2991,"la2":30.254,"lo1":-89.0895,"lo2":-89.0444,"dy":0.0017,"dx":0.0017,"nx":28,"ny":28,"refTime":"2025-03-20T21:00:00:Z","depth":0,"parameterNumber":2,"parameterNumberName":"U-component_of_WINDS"},"data":[0,0,0,0,0,0,0,0,0,0,0,0,0,0,0,0,0,0,0,0,0,0,0,0,0,0,0,0,0,0,0,0,0,0,0,0,0,0,0,0,0,0,0,0,0,0,0,0,0,0,0,0,0,0,0,0,0,0,-1.6275,-1.6274,0,-1.6192,-1.6191,-1.619,-1.6089,-1.6088,-1.6086,-1.6085,-1.6,-1.6,-1.5999,0,0,0,0,0,0,0,0,0,0,0,0,0,-1.6347,-1.6347,-1.6275,-1.6274,-1.6273,-1.6192,-1.6191,-1.619,-1.609,-1.6088,-1.6086,-1.6084,-1.6001,-1.6,-1.5999,0,0,0,0,0,0,0,0,0,0,0,0,0,-1.6296,-1.6346,-1.6275,-1.6213,-1.6207,-1.6193,-1.6191,-1.619,-1.609,-1.6088,-1.6085,-1.6083,-1.6001,-1.6,-1.5999,-1.6039,0,0,-1.5995,-1.5995,0,0,0,0,0,0,0,0,-1.6299,-1.6293,-1.6223,-1.6217,-1.621,-1.6149,-1.6186,-1.6139,-1.6091,-1.6135,-1.6085,-1.6082,-1.6052,-1.6046,-1.6036,-1.6035,-1.6031,-1.5995,-1.5994,-1.5994,-1.5993,0,0,0,0,0,0,0,-1.6302,-1.6296,-1.6242,-1.6223,-1.6215,-1.619,-1.618,-1.6176,-1.6107,-1.613,-1.6123,-1.6115,-1.6048,-1.6037,-1.6033,-1.603,-1.5995,-1.5994,-1.5993,-1.5993,-1.6059,-1.6062,0,0,0,0,0,0,-1.6315,-1.63,-1.6245,-1.624,-1.625,-1.6191,-1.6179,-1.6171,-1.6107,-1.6095,-1.6117,-1.611,-1.604,-1.6035,-1.603,-1.6073,-1.5994,-1.5993,-1.5992,-1.6057,-1.606,-1.6063,0,0,0,0,0,0,-1.6317,-1.6311,-1.6248,-1.6268,-1.6258,-1.6192,-1.6183,-1.6171,-1.616,-1.6097,-1.6084,-1.6119,-1.6038,-1.6031,-1.6038,-1.6069,-1.5992,-1.5991,-1.6054,-1.6058,-1.6061,-1.6161,0,0,0,0,0,0,-1.632,-1.6312,-1.6327,-1.6269,-1.6257,-1.6257,-1.6185,-1.6171,-1.6158,-1.6149,-1.6095,-1.6084,-1.6036,-1.604,-1.6037,-1.6066,-1.599,-1.6051,-1.6056,-1.606,-1.6154,-1.6167,-1.6178,0,0,0,0,0,-1.6323,-1.6358,-1.6328,-1.6322,-1.6273,-1.6259,-1.6253,-1.6197,-1.6161,-1.6175,-1.6135,-1.6086,-1.6066,-1.6041,-1.6037,-1.6066,-1.6049,-1.6054,-1.606,-1.6149,-1.6165,-1.6178,0,0,0,0,0,0,-1.642,-1.6349,-1.6315,-1.6332,-1.6303,-1.6242,-1.6258,-1.6215,-1.6195,-1.6187,-1.6118,-1.6107,-1.6122,-1.6095,-1.6068,-1.6103,-1.605,-1.6055,-1.612,-1.6134,-1.6146,-1.6152,-1.5989,0,0,0,0,0,-1.6444,-1.6439,-1.6376,-1.6398,-1.6385,-1.6325,-1.6316,-1.6276,-1.6242,-1.6229,-1.6189,-1.6159,-1.6146,-1.6139,-1.6123,-1.615,-1.6138,-1.6168,-1.6181,-1.6191,-1.6196,-1.6209,-1.6222,-1.6081,-1.6081,-1.6081,0,0,-1.6493,-1.6453,-1.6454,-1.6416,-1.6389,-1.6385,-1.6314,-1.6313,-1.6309,-1.6229,-1.6232,-1.6202,-1.6164,-1.6181,-1.6187,-1.6159,-1.6232,-1.6198,-1.6207,-1.6206,-1.6216,-1.623,-1.6242,-1.6085,-1.6084,-1.6083,0,0,-1.6579,-1.6549,-1.6564,-1.6538,-1.6497,-1.6457,-1.6461,-1.6407,-1.6384,-1.6387,-1.6327,-1.6322,-1.6301,-1.6276,-1.6261,-1.6342,-1.6296,-1.6339,-1.6401,-1.6415,-1.6426,-1.6436,-1.6465,-1.6476,-1.6344,-1.6344,-1.6344,0,-1.6645,-1.6636,-1.6577,-1.6579,-1.6565,-1.6493,-1.6508,-1.6486,-1.6442,-1.6434,-1.6404,-1.6377,-1.6346,-1.6357,-1.6377,-1.6367,-1.637,-1.6344,-1.643,-1.6439,-1.6447,-1.6474,-1.6485,-1.6349,-1.6349,-1.6348,-1.6348,0,-1.6719,-1.6715,-1.6732,-1.6692,-1.668,-1.6689,-1.6631,-1.6626,-1.6588,-1.6551,-1.6556,-1.6517,-1.6492,-1.6492,-1.6454,-1.6499,-1.6483,-1.6442,-1.6388,-1.6467,-1.6491,-1.6501,-1.6357,-1.6355,-1.6354,-1.6352,0,0,-1.6864,-1.6792,-1.68,-1.6781,-1.6732,-1.6727,-1.6734,-1.671,-1.6708,-1.6681,-1.6685,-1.667,-1.6633,-1.6616,-1.6575,-1.6587,-1.6654,-1.6545,-1.6543,-1.6567,-1.6702,-1.6732,-1.6745,-1.6624,-1.6626,-1.6627,-1.6705,0,-1.6941,-1.6947,-1.6895,-1.6916,-1.6911,-1.6843,-1.6849,-1.682,-1.6787,-1.6779,-1.6742,-1.6733,-1.6684,-1.6673,-1.6683,-1.6644,-1.668,-1.6638,-1.6628,-1.6628,-1.6639,-1.6758,-1.6789,-1.6865,-1.6714,-1.6715,-1.6717,0,-1.7032,-1.7011,-1.7031,-1.6982,-1.6978,-1.6985,-1.696,-1.6953,-1.6919,-1.6894,-1.6877,-1.683,-1.6833,-1.6783,-1.6788,-1.676,-1.6753,-1.6734,-1.6736,-1.6732,-1.6677,-1.6757,-1.6887,-1.6899,-1.6731,-1.673,-1.6729,0,-1.7135,-1.7112,-1.7122,-1.7108,-1.7051,-1.7057,-1.7034,-1.6998,-1.6988,-1.6967,-1.696,-1.6939,-1.6928,-1.6914,-1.6864,-1.6831,-1.6875,-1.682,-1.6854,-1.6856,-1.6866,-1.6866,-1.6996,-1.6862,-1.6862,-1.6862,-1.6862,0,-1.7227,-1.7242,-1.7167,-1.7173,-1.7189,-1.7129,-1.7147,-1.7117,-1.7086,-1.7085,-1.7026,-1.7027,-1.696,-1.6954,-1.6915,-1.6925,-1.692,-1.6901,-1.689,-1.6906,-1.6908,-1.69,-1.6893,-1.6865,-1.6864,-1.6863,-1.6863,0,-1.7345,-1.7295,-1.7301,-1.7248,-1.7235,-1.7249,-1.7203,-1.7207,-1.7171,-1.7171,-1.7167,-1.7111,-1.7101,-1.7049,-1.7027,-1.7001,-1.7025,-1.7004,-1.7036,-1.7029,-1.7067,-1.7064,-1.7196,-1.7211,-1.7068,-1.707,-1.7071,0,-1.7406,-1.7417,-1.7365,-1.736,-1.734,-1.7333,-1.7323,-1.7265,-1.7257,-1.7221,-1.7229,-1.7214,-1.7199,-1.7186,-1.7144,-1.7127,-1.7105,-1.7152,-1.7102,-1.7118,-1.7106,-1.7106,-1.7107,-1.7163,-1.7165,-1.7166,-1.7167,0,-1.7521,-1.7496,-1.7484,-1.7464,-1.7453,-1.7434,-1.7412,-1.7412,-1.7348,-1.7342,-1.7331,-1.732,-1.7298,-1.7284,-1.726,-1.7237,-1.7192,-1.7184,-1.7191,-1.7207,-1.7226,-1.7217,-1.7066,-1.7181,-1.718,-1.7179,-1.7178,-1.7177,-1.7612,-1.7619,-1.7584,-1.7572,-1.755,-1.7531,-1.7532,-1.7496,-1.7486,-1.7464,-1.7431,-1.7425,-1.7392,-1.7356,-1.7336,-1.7331,-1.7305,-1.7316,-1.7318,-1.7322,-1.733,-1.7227,-1.7327,-1.7326,-1.7326,-1.7325,-1.7325,0,-1.7724,-1.7699,-1.7689,-1.766,-1.7651,-1.761,-1.7584,-1.758,-1.7575,-1.7549,-1.7536,-1.7524,-1.7511,-1.7468,-1.7451,-1.7456,-1.7435,-1.7453,-1.7452,-1.7448,-1.7354,-1.7349,-1.747,-1.747,-1.747,-1.747,-1.747,-1.747,-1.7781,-1.779,-1.7762,-1.776,-1.7734,-1.7728,-1.7717,-1.7699,-1.7678,-1.7668,-1.7657,-1.7629,-1.7597,-1.7577,-1.7564,-1.7552,-1.7548,-1.7573,-1.7555,-1.7468,-1.7454,-1.7441,-1.7436,-1.7573,-1.7573,-1.7649,-1.7649,-1.765]},{"header":{"parameterUnit":"m.s-1","parameterCategory":1,"la1":30.2991,"la2":30.254,"lo1":-89.0895,"lo2":-89.0444,"dy":0.0017,"dx":0.0017,"nx":28,"ny":28,"refTime":"2025-03-20T21:00:00:Z","depth":0,"parameterNumber":3,"parameterNumberName":"V-component_of_WINDS"},"data":[0,0,0,0,0,0,0,0,0,0,0,0,0,0,0,0,0,0,0,0,0,0,0,0,0,0,0,0,0,0,0,0,0,0,0,0,0,0,0,0,0,0,0,0,0,0,0,0,0,0,0,0,0,0,0,0,0,0,2.0047,2.0047,0,2.0016,2.0016,2.0015,2.0036,2.0037,2.0038,2.0038,2.0002,2.0,1.9998,0,0,0,0,0,0,0,0,0,0,0,0,0,2.012,2.0119,2.0047,2.0047,2.0046,2.0016,2.0016,2.0015,2.0035,2.0037,2.0038,2.0039,2.0003,2.0001,1.9998,0,0,0,0,0,0,0,0,0,0,0,0,0,2.0089,2.0119,2.0047,2.0053,2.0053,2.0016,2.0016,2.0015,2.0035,2.0037,2.0038,2.0039,2.0003,2.0001,1.9998,1.9952,0,0,1.9989,1.9988,0,0,0,0,0,0,0,0,2.0091,2.0086,2.0052,2.0052,2.0053,2.0031,2.0028,1.9994,2.0035,2.0042,2.0038,2.004,2.001,2.0007,1.9998,1.9951,1.9949,1.9989,1.9988,1.9986,1.9986,0,0,0,0,0,0,0,2.0093,2.0087,2.0035,2.0052,2.0052,2.0056,2.0053,2.0022,2.0018,2.0041,2.0043,2.0039,2.0011,2.0001,1.9997,1.9949,1.9989,1.9987,1.9985,1.9984,1.9862,1.9861,0,0,0,0,0,0,2.0095,2.0089,2.0036,2.0034,2.0076,2.0053,2.005,2.0037,2.0019,2.0017,2.0038,2.004,2.0005,2.0,1.9996,1.9941,1.9986,1.9984,1.9982,1.9864,1.9862,1.986,0,0,0,0,0,0,2.0096,2.009,2.0037,2.0062,2.0055,2.0051,2.0035,2.0035,2.0025,2.0016,2.0015,2.0028,2.0006,2.0,1.9963,1.994,1.9983,1.998,1.9866,1.9863,1.9861,1.9831,0,0,0,0,0,0,2.0098,2.009,2.0074,2.0061,2.0054,2.0006,2.0034,2.0034,2.0021,2.0024,2.0007,2.0006,2.0006,1.9967,1.9961,1.9937,1.9978,1.9868,1.9865,1.9862,1.9834,1.9828,1.9823,0,0,0,0,0,2.0101,2.0065,2.0073,2.0066,2.0033,2.0004,2.0,2.0003,2.0019,2.0002,1.9996,2.0006,1.9944,1.9964,1.9956,1.9931,1.9869,1.9866,1.9862,1.9837,1.9829,1.9823,0,0,0,0,0,0,2.0073,2.0064,2.0072,2.0031,2.0019,2.0008,1.9986,1.9995,1.9976,1.9979,1.9982,1.9978,1.994,1.9932,1.9954,1.9887,1.9909,1.9904,1.9893,1.9885,1.988,1.9882,1.9976,0,0,0,0,0,2.0063,2.0041,2.0034,1.9999,1.9992,1.999,1.9978,1.9981,1.9967,1.9961,1.9953,1.9938,1.9916,1.99,1.9879,1.9834,1.983,1.9814,1.9808,1.9803,1.9798,1.9774,1.9766,1.9849,1.9849,1.9849,0,0,2.004,2.0032,2.0018,1.9993,1.9983,1.996,1.9985,1.9959,1.9942,1.9957,1.9922,1.9916,1.9899,1.9859,1.984,1.9851,1.9775,1.9799,1.9795,1.9793,1.9769,1.9762,1.9755,1.9846,1.9847,1.9847,0,0,1.9986,1.9979,1.9949,1.9939,1.9926,1.9925,1.9918,1.9906,1.9903,1.9868,1.988,1.9858,1.9819,1.9807,1.9796,1.974,1.9748,1.9733,1.9703,1.9679,1.9672,1.9667,1.9646,1.9638,1.9728,1.9728,1.9728,0,1.9959,1.9925,1.9932,1.9905,1.9894,1.9909,1.9878,1.9869,1.9848,1.9839,1.9852,1.9804,1.9794,1.9751,1.9737,1.9728,1.9719,1.9734,1.9673,1.9667,1.9662,1.9642,1.9634,1.9726,1.9726,1.9727,1.9727,0,1.9893,1.9869,1.9847,1.9828,1.9814,1.9785,1.9787,1.9772,1.9777,1.9774,1.9739,1.9728,1.9705,1.9696,1.9699,1.9653,1.966,1.9673,1.9696,1.9652,1.9633,1.9626,1.9724,1.9724,1.9725,1.9725,0,0,1.9818,1.9805,1.9797,1.9789,1.9776,1.9757,1.9729,1.9708,1.9695,1.9681,1.9657,1.9624,1.9637,1.9624,1.9627,1.9606,1.9562,1.9622,1.9622,1.9611,1.9509,1.9498,1.949,1.9569,1.9567,1.9566,1.951,0,1.9763,1.9716,1.9722,1.9676,1.9654,1.967,1.9645,1.9634,1.9632,1.9612,1.9609,1.9585,1.9604,1.9597,1.9577,1.9572,1.9542,1.9576,1.9545,1.9544,1.9547,1.948,1.9468,1.9416,1.9503,1.9502,1.9501,0,1.9692,1.9677,1.963,1.9621,1.9612,1.959,1.9572,1.9553,1.9541,1.9541,1.9527,1.9534,1.9506,1.9531,1.949,1.9514,1.9502,1.9497,1.9495,1.9491,1.9519,1.9473,1.9399,1.9391,1.949,1.9491,1.9491,0,1.9642,1.961,1.9577,1.957,1.9559,1.9543,1.9538,1.9527,1.9514,1.9498,1.949,1.947,1.9459,1.9443,1.9444,1.9462,1.9403,1.9428,1.9401,1.94,1.9386,1.9386,1.9308,1.938,1.938,1.9381,1.9381,0,1.9579,1.9549,1.9555,1.9534,1.9502,1.9509,1.9475,1.9472,1.9462,1.9441,1.9453,1.9432,1.9436,1.9415,1.9416,1.9383,1.9378,1.9376,1.9376,1.9374,1.9374,1.9364,1.9368,1.9379,1.9379,1.9379,1.938,0,1.9516,1.9519,1.9484,1.9478,1.9475,1.9451,1.9445,1.9425,1.9425,1.9398,1.9392,1.939,1.9367,1.9367,1.934,1.934,1.9299,1.9304,1.9303,1.9304,1.9276,1.9278,1.9188,1.9176,1.9257,1.9256,1.9256,0,1.9475,1.9452,1.9444,1.9432,1.9425,1.9405,1.9393,1.9399,1.9386,1.9371,1.9353,1.9331,1.9313,1.9275,1.927,1.925,1.9254,1.9224,1.925,1.9249,1.9252,1.9253,1.925,1.9218,1.9217,1.9216,1.9215,0,1.9401,1.9404,1.9387,1.937,1.9356,1.9343,1.9331,1.9319,1.9324,1.9309,1.9286,1.9273,1.9246,1.9223,1.9204,1.9197,1.9206,1.9207,1.92,1.9197,1.9197,1.9196,1.9288,1.9209,1.9209,1.921,1.921,1.9211,1.9347,1.9328,1.932,1.93,1.9293,1.9281,1.9263,1.9261,1.9243,1.9223,1.9227,1.9201,1.919,1.9165,1.9157,1.9136,1.9146,1.9135,1.9132,1.9129,1.9126,1.9202,1.9132,1.9132,1.9133,1.9133,1.9133,0,1.9274,1.927,1.9252,1.9236,1.922,1.9233,1.9221,1.9207,1.9184,1.9174,1.9157,1.9131,1.911,1.9104,1.9084,1.9068,1.9072,1.9062,1.9063,1.9061,1.9118,1.9126,1.906,1.906,1.906,1.906,1.906,1.906,1.9234,1.9202,1.9205,1.917,1.9165,1.9141,1.9133,1.9123,1.9115,1.9085,1.9068,1.9066,1.9057,1.9037,1.9018,1.9017,1.9008,1.8996,1.8997,1.905,1.9057,1.9064,1.9072,1.8995,1.8995,1.8941,1.8941,1.8941]}]]